Change the Weather History Date:

Tuesday, October 25, 2011

  Actual Average Record
Temperature  
Mean Temperature 72 °F -  
Max Temperature 85 °F 62 °F 85 °F (2011)
Min Temperature 61 °F 45 °F 24 °F (2013)
Cooling Degree Days 8    
Growing Degree Days 22 (Base 50)    
Moisture  
Dew Point 53 °F    
Average Humidity 54    
Maximum Humidity 73    
Minimum Humidity 36    
Precipitation  
Precipitation 0.00 in - - ()
Sea Level Pressure  
Sea Level Pressure 29.84 in    
Wind  
Wind Speed 20 mph (SSW)    
Max Wind Speed 37 mph    
Max Gust Speed 46 mph    
Visibility 10 miles    
Events      
Averages and records for this station are not official NWS values.
T = Trace of Precipitation, MM = Missing Value Source: NWS Daily Summary

Daily Weather History Graph

Daily Weather History Graph

Search for Another Location

Airport or City:

Trip Planner

Search our weather history database for the weather conditions in past years. The results will help you decide how hot, cold, wet, or windy it might be!

Date:

Astronomy

Oct. 25, 2011 Rise Set
Actual Time 7:33 AM CDT 6:22 PM CDT
Civil Twilight 7:06 AM CDT 6:49 PM CDT
Nautical Twilight 6:35 AM CDT 7:20 PM CDT
Astronomical Twilight 6:04 AM CDT 7:51 PM CDT
Moon 6:06 AM CDT (10/25) 5:24 PM CDT (10/25)
Length of Visible Light 11h 43m
Length of Day
10h 49m
Waning Crescent, 2% of the Moon is Illuminated
Oct 25
Waning Crescent
Oct 26
New
Nov 2
First Quarter
Nov 10
Full
Nov 18
Last Quarter

Hourly Weather History & Observations

Time (CDT) Temp. Heat Index Dew Point Humidity Pressure Visibility Wind Dir Wind Speed Gust Speed Precip Events Conditions
12:55 AM 63.3 °F - 52.0 °F 66% 29.99 in 10.0 mi SSW 13.8 mph - N/A   Clear
1:55 AM 63.1 °F - 52.2 °F 67% 29.98 in 10.0 mi SSW 17.3 mph - N/A   Clear
2:55 AM 62.8 °F - 52.0 °F 68% 29.96 in 10.0 mi SSW 17.3 mph - N/A   Clear
3:55 AM 61.2 °F - 51.4 °F 70% 29.95 in 10.0 mi South 19.6 mph - N/A   Clear
4:55 AM 61.5 °F - 51.4 °F 69% 29.93 in 10.0 mi SSW 18.4 mph 26.5 mph N/A   Clear
5:55 AM 62.1 °F - 51.4 °F 68% 29.91 in 10.0 mi South 20.7 mph 26.5 mph N/A   Partly Cloudy
6:55 AM 61.3 °F - 51.6 °F 70% 29.91 in 10.0 mi South 19.6 mph 26.5 mph N/A   Partly Cloudy
7:55 AM 61.0 °F - 52.2 °F 73% 29.91 in 10.0 mi South 19.6 mph 25.3 mph N/A   Scattered Clouds
8:55 AM 63.7 °F - 52.7 °F 67% 29.89 in 10.0 mi SSW 21.9 mph 28.8 mph N/A   Mostly Cloudy
9:55 AM 68.4 °F - 53.2 °F 58% 29.86 in 10.0 mi SSW 29.9 mph 36.8 mph N/A   Mostly Cloudy
10:55 AM 72.5 °F - 54.1 °F 52% 29.85 in 10.0 mi SSW 32.2 mph 40.3 mph N/A   Mostly Cloudy
11:55 AM 77.7 °F - 55.6 °F 46% 29.81 in 10.0 mi SSW 29.9 mph 41.4 mph N/A   Mostly Cloudy
12:55 PM 80.4 °F 80.6 °F 56.5 °F 44% 29.76 in 10.0 mi SSW 29.9 mph 41.4 mph N/A   Mostly Cloudy
1:55 PM 84.4 °F 83.1 °F 55.0 °F 36% 29.73 in 10.0 mi SW 33.4 mph 46.0 mph N/A   Mostly Cloudy
2:55 PM 84.0 °F 82.9 °F 55.2 °F 37% 29.70 in 10.0 mi SSW 36.8 mph 44.9 mph N/A   Clear
3:55 PM 83.5 °F 82.4 °F 54.3 °F 37% 29.69 in 10.0 mi SW 29.9 mph 38.0 mph N/A   Partly Cloudy
4:55 PM 82.4 °F 81.9 °F 56.3 °F 41% 29.71 in 10.0 mi SW 26.5 mph 40.3 mph N/A   Clear
5:55 PM 80.6 °F 80.7 °F 56.7 °F 44% 29.72 in 10.0 mi SW 20.7 mph 33.4 mph N/A   Clear
6:55 PM 78.4 °F - 56.8 °F 47% 29.74 in 10.0 mi SSW 20.7 mph 26.5 mph N/A   Partly Cloudy
7:55 PM 77.0 °F - 56.8 °F 50% 29.75 in 10.0 mi SSW 19.6 mph - N/A   Clear
8:55 PM 74.8 °F - 57.2 °F 54% 29.79 in 10.0 mi WSW 10.4 mph - N/A   Clear
9:55 PM 70.9 °F - 43.9 °F 38% 29.81 in 10.0 mi West 8.1 mph - N/A   Partly Cloudy
10:55 PM 66.6 °F - 47.7 °F 51% 29.85 in 10.0 mi WNW 9.2 mph - N/A   Scattered Clouds
11:55 PM 63.1 °F - 46.6 °F 55% 29.86 in 10.0 mi NW 9.2 mph - N/A   Scattered Clouds